Weather Roundup
Issued by NWS Chicago, IL

Home | Current Version | Previous Version | Graphics & Text | Print | Product List | Glossary On
Versions: 1 2 3 4 5 6 7 8 9 10 11 12 13 14 15 16 17 18 19 20 21 22 23 24 25 26 27 28 29 30 31 32 33 34 35 36 37 38 39 40 41 42 43 44 45 46 47 48 49 50
000
NZUS59 KLOT 242008
HRRLOT

CHICAGO AREA WEATHER ROUNDUP
NATIONAL WEATHER SERVICE CHICAGO/ROMEOVILLE IL
300 PM CDT SUN JUL 24 2016

NOTE: "FAIR" INDICATES FEW OR NO CLOUDS BELOW 12,000 FEET WITH NO
SIGNIFICANT WEATHER AND/OR OBSTRUCTIONS TO VISIBILITY.

* THESE STATIONS ARE NOT UNDER NWS QUALITY CONTROL. THEY ALSO MAY NOT
  REPORT WEATHER SUCH AS PRECIPITATION OR FOG.

ILZ005-006-012>014-019>023-242100-
NORTHEAST ILLINOIS

CITY           SKY/WX    TMP DP  RH WIND       PRES   REMARKS
OHARE          PTSUNNY   92  77  61 SW17G23   29.84F HX 105
MIDWAY         PTSUNNY   93  78  61 SW17G26   29.85F HX 108
AURORA         MOSUNNY   90  80  72 S12       29.87S THUNDER HAZE
LANSING*       MOSUNNY   89  77  67 SW18G25   29.89F HX 102
JOLIET*        MOSUNNY   92  82  72 S13       29.87S HX 114
WAUKEGAN       MOSUNNY   94  77  57 SW15G26   29.82F HX 108
DUPAGE AIRPORT CLOUDY    92  79  65 S15       29.86S HX 108
WHEELING       MOSUNNY   93  77  59 SW15G26   29.85F HX 107
MORRIS*        PTSUNNY   91  81  73 SW9       29.86S HX 110
LEWIS AIRPORT* CLOUDY    90  78  66 SW12G20   29.87S HX 104
NORTHERLY ISL    N/A     90  75  61 S16         N/A  HX 100
$$

WIZ051-052-058>065-066-070>072-242100-
SOUTHEAST WISCONSIN

CITY           SKY/WX    TMP DP  RH WIND       PRES   REMARKS
MILWAUKEE      PTSUNNY   92  78  63 S16G22    29.81F HX 107
KENOSHA*       MOSUNNY   93  77  59 SW17G25   29.84S HX 107
RACINE*        TSTM      82  77  84 CALM      29.85R VSB 1   HX  90
BURLINGTON     MOSUNNY   95  84  70 W10G18    29.83F HX 122
$$

INZ001>003-010>013-019-020-242100-
NORTHWEST INDIANA

CITY           SKY/WX    TMP DP  RH WIND       PRES   REMARKS
GARY*          PTSUNNY   91 N/A N/A S12G23    29.88F
MICHIGAN CITY* NOT AVBL
RENSSELAER*    NOT AVBL
VALPARAISO     MOSUNNY   89  77  67 S15G21    29.92F HX 101
$$

LMZ740>746-242100-
SOUTHERN LAKE MICHIGAN

STATION/POSITION TIME  SKY/WX   TEMP WIND        PRES    VSBY
                                AIR  DIR/SP/G
                 (UTC)          (F)  (DEG/KT/KT) (MB)    (MI)
HARRISON CRIB    1900            87  190/ 21/ 23   N/A
BURNHAM HARBOR   1900            90  200/ 15/ 20   N/A
CALUMET HARBOR   1900            88  180/ 12/ 16 1011.2F
BURNS HARBOR     1900            87  200/ 13/ 19 1012.9F
MICHIGAN CITY    1900            86  160/ 14/ 17   N/A
$$

ABBREVIATIONS USED IN REMARKS
   TC - TEMPERATURE IN CELSIUS
  WCI - WIND CHILL INDEX
   HX - HEAT INDEX
  VSB - VISIBILITY
$$



USA.gov is the U.S. government's official web portal to all federal, state and local government web resources and services.